| time (UTC) | temp C | wind direction | speed KPH | gust KPH | rain 1hr cm | rain 24hr cm | rain mn cm | humidity % | barometer mb |
| 20260504192119 | 15 | 0.0 | 0.0 | 0.00 | 0.00 | 0.00 | 76 | 1011.4 | |
| 20260504191815 | 15 | 0.0 | 0.0 | 0.00 | 0.00 | 0.00 | 76 | 1011.4 | |
| 20260504191517 | 15 | 338 | 0.0 | 1.6 | 0.00 | 0.00 | 0.00 | 76 | 1011.4 |
| 20260504191216 | 15 | 338 | 1.6 | 3.2 | 0.00 | 0.00 | 0.00 | 76 | 1011.3 |
| 20260504190916 | 16 | 333 | 3.2 | 6.4 | 0.00 | 0.00 | 0.00 | 76 | 1011.4 |
| 20260504190617 | 16 | 328 | 1.6 | 3.2 | 0.00 | 0.00 | 0.00 | 76 | 1011.4 |
| 20260504190317 | 16 | 328 | 1.6 | 3.2 | 0.00 | 0.00 | 0.00 | 75 | 1011.4 |
| 20260504190017 | 16 | 328 | 3.2 | 4.8 | 0.00 | 0.00 | 0.00 | 75 | 1011.4 |
| 20260504185716 | 16 | 328 | 1.6 | 3.2 | 0.00 | 0.00 | 0.00 | 74 | 1011.3 |
| 20260504185417 | 16 | 328 | 3.2 | 4.8 | 0.00 | 0.00 | 0.00 | 74 | 1011.3 |
| 20260504185116 | 16 | 326 | 3.2 | 4.8 | 0.00 | 0.00 | 0.00 | 74 | 1011.3 |
| 20260504184916 | 16 | 326 | 3.2 | 4.8 | 0.00 | 0.00 | 0.00 | 73 | 1011.2 |
| 20260504184515 | 17 | 329 | 3.2 | 4.8 | 0.00 | 0.00 | 0.00 | 73 | 1011.2 |
| 20260504184217 | 17 | 333 | 3.2 | 6.4 | 0.00 | 0.00 | 0.00 | 72 | 1011.2 |
| 20260504183917 | 17 | 332 | 3.2 | 4.8 | 0.00 | 0.00 | 0.00 | 72 | 1011.2 |
| 20260504183616 | 17 | 333 | 3.2 | 4.8 | 0.00 | 0.00 | 0.00 | 71 | 1011.2 |
| 20260504183315 | 17 | 329 | 3.2 | 4.8 | 0.00 | 0.00 | 0.00 | 71 | 1011.2 |
| 20260504183016 | 17 | 327 | 3.2 | 6.4 | 0.00 | 0.00 | 0.00 | 70 | 1011.1 |
| 20260504182717 | 17 | 335 | 3.2 | 6.4 | 0.00 | 0.00 | 0.00 | 70 | 1011.1 |
| 20260504182417 | 17 | 329 | 3.2 | 6.4 | 0.00 | 0.00 | 0.00 | 70 | 1011.1 |
| 20260504182115 | 18 | 329 | 3.2 | 6.4 | 0.00 | 0.00 | 0.00 | 70 | 1011.1 |
| 20260504181817 | 18 | 331 | 3.2 | 6.4 | 0.00 | 0.00 | 0.00 | 70 | 1011.1 |
| 20260504181516 | 18 | 357 | 3.2 | 6.4 | 0.00 | 0.00 | 0.00 | 70 | 1011.1 |
| 20260504181217 | 18 | 4 | 3.2 | 6.4 | 0.00 | 0.00 | 0.00 | 70 | 1011.1 |
| 20260504180956 | 18 | 351 | 1.6 | 4.8 | 0.00 | 0.00 | 0.00 | 69 | 1011.1 |
| 20260504180657 | 18 | 344 | 1.6 | 6.4 | 0.00 | 0.00 | 0.00 | 69 | 1011.0 |
| 20260504180357 | 18 | 330 | 3.2 | 6.4 | 0.00 | 0.00 | 0.00 | 69 | 1011.0 |
| 20260504180058 | 18 | 334 | 3.2 | 6.4 | 0.00 | 0.00 | 0.00 | 68 | 1011.0 |
| 20260504175717 | 18 | 326 | 3.2 | 8.0 | 0.00 | 0.00 | 0.00 | 66 | 1011.0 |
| 20260504175418 | 19 | 327 | 6.4 | 8.0 | 0.00 | 0.00 | 0.00 | 66 | 1011.0 |
| 20260504175157 | 19 | 323 | 3.2 | 6.4 | 0.00 | 0.00 | 0.00 | 66 | 1011.0 |
| 20260504174816 | 19 | 324 | 4.8 | 8.0 | 0.00 | 0.00 | 0.00 | 66 | 1011.0 |
| 20260504174520 | 19 | 324 | 4.8 | 6.4 | 0.00 | 0.00 | 0.00 | 66 | 1011.0 |
| 20260504174217 | 19 | 329 | 4.8 | 6.4 | 0.00 | 0.00 | 0.00 | 65 | 1011.0 |
| 20260504173917 | 19 | 326 | 4.8 | 8.0 | 0.00 | 0.00 | 0.00 | 65 | 1010.9 |
| 20260504173620 | 20 | 324 | 4.8 | 8.0 | 0.00 | 0.00 | 0.00 | 64 | 1011.0 |
| 20260504173315 | 20 | 325 | 6.4 | 8.0 | 0.00 | 0.00 | 0.00 | 64 | 1010.9 |
| 20260504173017 | 20 | 323 | 4.8 | 8.0 | 0.00 | 0.00 | 0.00 | 64 | 1011.0 |
| 20260504172716 | 20 | 327 | 3.2 | 6.4 | 0.00 | 0.00 | 0.00 | 63 | 1010.9 |
| 20260504172419 | 20 | 326 | 4.8 | 8.0 | 0.00 | 0.00 | 0.00 | 62 | 1010.9 |
| 20260504172157 | 20 | 330 | 4.8 | 9.7 | 0.00 | 0.00 | 0.00 | 61 | 1010.9 |
| 20260504171817 | 20 | 325 | 4.8 | 8.0 | 0.00 | 0.00 | 0.00 | 61 | 1010.9 |
| 20260504171520 | 20 | 338 | 3.2 | 6.4 | 0.00 | 0.00 | 0.00 | 61 | 1010.9 |
| 20260504171216 | 20 | 329 | 3.2 | 6.4 | 0.00 | 0.00 | 0.00 | 62 | 1010.9 |
| 20260504170917 | 21 | 324 | 3.2 | 4.8 | 0.00 | 0.00 | 0.00 | 61 | 1010.9 |
| 20260504170616 | 21 | 328 | 4.8 | 8.0 | 0.00 | 0.00 | 0.00 | 62 | 1011.0 |
| 20260504170317 | 21 | 328 | 4.8 | 9.7 | 0.00 | 0.00 | 0.00 | 61 | 1010.9 |
| 20260504160316 | 21 | 328 | 6.4 | 12.9 | 0.00 | 0.00 | 0.00 | 60 | 1011.0 |
| 20260504150917 | 22 | 324 | 8.0 | 14.5 | 0.00 | 0.00 | 0.00 | 54 | 1011.1 |
| 20260504150655 | 22 | 285 | 8.0 | 14.5 | 0.00 | 0.00 | 0.00 | 51 | 1011.1 |
| 20260504150316 | 22 | 270 | 8.0 | 14.5 | 0.00 | 0.00 | 0.00 | 52 | 1011.1 |
| 20260504141257 | 22 | 270 | 11.3 | 17.7 | 0.00 | 0.00 | 0.00 | 51 | 1011.4 |
| 20260504140918 | 22 | 274 | 9.7 | 17.7 | 0.00 | 0.00 | 0.00 | 51 | 1011.3 |
| 20260504140618 | 22 | 279 | 8.0 | 16.1 | 0.00 | 0.00 | 0.00 | 50 | 1011.3 |
| 20260504140315 | 22 | 271 | 9.7 | 16.1 | 0.00 | 0.00 | 0.00 | 50 | 1011.3 |
| 20260504130617 | 22 | 292 | 9.7 | 14.5 | 0.00 | 0.00 | 0.00 | 52 | 1011.6 |
| 20260504130318 | 22 | 280 | 8.0 | 16.1 | 0.00 | 0.00 | 0.00 | 52 | 1011.7 |
| 20260504120317 | 23 | 228 | 4.8 | 9.7 | 0.00 | 0.00 | 0.00 | 48 | 1011.9 |
| 20260504110616 | 22 | 257 | 6.4 | 12.9 | 0.00 | 0.00 | 0.00 | 52 | 1012.3 |
| 20260504110316 | 22 | 194 | 6.4 | 11.3 | 0.00 | 0.00 | 0.00 | 51 | 1012.4 |
| 20260504100317 | 20 | 227 | 9.7 | 19.3 | 0.00 | 0.00 | 0.00 | 59 | 1012.8 |
| 20260504081820 | 18 | 278 | 9.7 | 16.1 | 0.00 | 0.00 | 0.00 | 65 | 1012.8 |
| 20260504081518 | 18 | 275 | 8.0 | 12.9 | 0.00 | 0.00 | 0.00 | 65 | 1012.7 |
| 20260504081216 | 18 | 277 | 9.7 | 17.7 | 0.00 | 0.00 | 0.00 | 65 | 1012.7 |
| 20260504080918 | 18 | 248 | 8.0 | 16.1 | 0.00 | 0.00 | 0.00 | 64 | 1012.9 |
| 20260504080623 | 18 | 262 | 11.3 | 20.9 | 0.00 | 0.00 | 0.00 | 64 | 1012.8 |
| 20260504080317 | 18 | 273 | 9.7 | 19.3 | 0.00 | 0.00 | 0.00 | 65 | 1012.7 |
| 20260504080135 | 18 | 279 | 9.7 | 19.3 | 0.00 | 0.00 | 0.00 | 65 | 1012.7 |
| 20260504070400 | 17 | 264 | 9.7 | 17.7 | 0.00 | 0.00 | 0.00 | 64 | 1012.2 |
| 20260504050615 | 15 | 232 | 3.2 | 4.8 | 0.00 | 0.00 | 0.00 | 67 | 1011.5 |
| 20260504050357 | 15 | 227 | 3.2 | 4.8 | 0.00 | 0.00 | 0.00 | 66 | 1011.4 |
| 20260504045718 | 15 | 227 | 1.6 | 3.2 | 0.00 | 0.00 | 0.00 | 65 | 1011.4 |
| 20260504045416 | 15 | 223 | 1.6 | 3.2 | 0.00 | 0.00 | 0.00 | 65 | 1011.3 |
| 20260504045115 | 15 | 221 | 3.2 | 4.8 | 0.00 | 0.00 | 0.00 | 65 | 1011.3 |
| 20260504044815 | 15 | 221 | 1.6 | 3.2 | 0.00 | 0.00 | 0.00 | 64 | 1011.2 |
| 20260504044515 | 15 | 221 | 3.2 | 4.8 | 0.00 | 0.00 | 0.00 | 65 | 1011.3 |
| 20260504044255 | 15 | 221 | 1.6 | 3.2 | 0.00 | 0.00 | 0.00 | 65 | 1011.2 |
| 20260504043958 | 15 | 222 | 1.6 | 4.8 | 0.00 | 0.00 | 0.00 | 64 | 1011.2 |
| 20260504043615 | 15 | 223 | 1.6 | 4.8 | 0.00 | 0.00 | 0.00 | 64 | 1011.2 |
| 20260504043315 | 15 | 231 | 3.2 | 4.8 | 0.00 | 0.00 | 0.00 | 64 | 1011.2 |
| 20260504043015 | 15 | 231 | 1.6 | 4.8 | 0.00 | 0.00 | 0.00 | 64 | 1011.2 |
| 20260504042758 | 15 | 235 | 1.6 | 3.2 | 0.00 | 0.00 | 0.00 | 64 | 1011.2 |
| 20260504042415 | 15 | 242 | 1.6 | 4.8 | 0.00 | 0.00 | 0.00 | 64 | 1011.3 |
| 20260504042115 | 15 | 238 | 1.6 | 4.8 | 0.00 | 0.00 | 0.00 | 64 | 1011.3 |
| 20260504041938 | 15 | 244 | 1.6 | 4.8 | 0.00 | 0.00 | 0.00 | 64 | 1011.4 |
| 20260504041555 | 15 | 231 | 3.2 | 6.4 | 0.00 | 0.00 | 0.00 | 63 | 1011.4 |
| 20260504041215 | 15 | 229 | 3.2 | 6.4 | 0.00 | 0.00 | 0.00 | 63 | 1011.3 |
| 20260504040915 | 15 | 232 | 3.2 | 4.8 | 0.00 | 0.00 | 0.00 | 63 | 1011.4 |
| 20260504040615 | 15 | 236 | 3.2 | 4.8 | 0.00 | 0.00 | 0.00 | 64 | 1011.4 |
| 20260504040315 | 15 | 234 | 3.2 | 4.8 | 0.00 | 0.00 | 0.00 | 64 | 1011.3 |
| 20260504040015 | 15 | 236 | 3.2 | 6.4 | 0.00 | 0.00 | 0.00 | 65 | 1011.4 |
| 20260504035915 | 15 | 229 | 3.2 | 4.8 | 0.00 | 0.00 | 0.00 | 65 | 1011.3 |
| 20260504035415 | 15 | 229 | 3.2 | 4.8 | 0.00 | 0.00 | 0.00 | 65 | 1011.4 |
| 20260504035115 | 15 | 230 | 3.2 | 4.8 | 0.00 | 0.00 | 0.00 | 64 | 1011.3 |
| 20260504034815 | 15 | 224 | 4.8 | 6.4 | 0.00 | 0.00 | 0.00 | 64 | 1011.3 |
| 20260504034515 | 15 | 223 | 3.2 | 6.4 | 0.00 | 0.00 | 0.00 | 64 | 1011.3 |
| 20260504034215 | 15 | 219 | 3.2 | 4.8 | 0.00 | 0.00 | 0.00 | 64 | 1011.3 |
| 20260504034038 | 15 | 224 | 3.2 | 6.4 | 0.00 | 0.00 | 0.00 | 64 | 1011.3 |
| 20260504033615 | 15 | 224 | 3.2 | 4.8 | 0.00 | 0.00 | 0.00 | 63 | 1011.4 |
| 20260504033355 | 15 | 224 | 3.2 | 6.4 | 0.00 | 0.00 | 0.00 | 63 | 1011.3 |
| 20260504033015 | 15 | 224 | 3.2 | 4.8 | 0.00 | 0.00 | 0.00 | 63 | 1011.3 |
| 20260504032715 | 15 | 224 | 3.2 | 4.8 | 0.00 | 0.00 | 0.00 | 63 | 1011.3 |
| 20260504032455 | 15 | 224 | 3.2 | 4.8 | 0.00 | 0.00 | 0.00 | 62 | 1011.4 |
| 20260504032121 | 15 | 228 | 3.2 | 6.4 | 0.00 | 0.00 | 0.00 | 63 | 1011.4 |
| 20260504031815 | 15 | 230 | 3.2 | 4.8 | 0.00 | 0.00 | 0.00 | 63 | 1011.3 |
| 20260504031515 | 15 | 229 | 3.2 | 4.8 | 0.00 | 0.00 | 0.00 | 63 | 1011.4 |
| 20260504031215 | 15 | 224 | 1.6 | 4.8 | 0.00 | 0.00 | 0.00 | 63 | 1011.4 |
| 20260504030915 | 15 | 224 | 3.2 | 4.8 | 0.00 | 0.00 | 0.00 | 62 | 1011.4 |
| 20260504030658 | 15 | 223 | 3.2 | 6.4 | 0.00 | 0.00 | 0.00 | 62 | 1011.3 |
| 20260504030318 | 15 | 227 | 3.2 | 4.8 | 0.00 | 0.00 | 0.00 | 62 | 1011.2 |
| 20260504030015 | 15 | 224 | 3.2 | 6.4 | 0.00 | 0.00 | 0.00 | 62 | 1011.2 |
| 20260504025718 | 15 | 223 | 3.2 | 6.4 | 0.00 | 0.00 | 0.00 | 61 | 1011.2 |
| 20260504025415 | 15 | 231 | 3.2 | 4.8 | 0.00 | 0.00 | 0.00 | 61 | 1011.2 |
| 20260504025115 | 15 | 230 | 3.2 | 4.8 | 0.00 | 0.00 | 0.00 | 61 | 1011.2 |
| 20260504024855 | 15 | 230 | 3.2 | 6.4 | 0.00 | 0.00 | 0.00 | 61 | 1011.2 |
| 20260504024515 | 15 | 233 | 3.2 | 6.4 | 0.00 | 0.00 | 0.00 | 60 | 1011.2 |
| 20260504024215 | 15 | 234 | 3.2 | 6.4 | 0.00 | 0.00 | 0.00 | 60 | 1011.1 |
| 20260504023915 | 15 | 237 | 3.2 | 4.8 | 0.00 | 0.00 | 0.00 | 60 | 1011.1 |
| 20260504023615 | 15 | 234 | 3.2 | 6.4 | 0.00 | 0.00 | 0.00 | 60 | 1011.1 |
| 20260504023315 | 15 | 239 | 4.8 | 6.4 | 0.00 | 0.00 | 0.00 | 59 | 1011.0 |
| 20260504023015 | 16 | 234 | 4.8 | 6.4 | 0.00 | 0.00 | 0.00 | 59 | 1011.0 |
| 20260504022730 | 16 | 243 | 3.2 | 6.4 | 0.00 | 0.00 | 0.00 | 59 | 1011.0 |
| 20260504022418 | 16 | 244 | 4.8 | 8.0 | 0.00 | 0.00 | 0.00 | 59 | 1010.9 |
| 20260504022115 | 16 | 245 | 4.8 | 6.4 | 0.00 | 0.00 | 0.00 | 58 | 1010.9 |
| 20260504021815 | 16 | 246 | 6.4 | 8.0 | 0.00 | 0.00 | 0.00 | 58 | 1010.8 |
| 20260504021515 | 16 | 245 | 4.8 | 6.4 | 0.00 | 0.00 | 0.00 | 58 | 1010.8 |
| 20260504021215 | 16 | 247 | 4.8 | 6.4 | 0.00 | 0.00 | 0.00 | 58 | 1010.8 |
| 20260504021035 | 16 | 243 | 4.8 | 8.0 | 0.00 | 0.00 | 0.00 | 58 | 1010.8 |
| 20260504020615 | 16 | 245 | 4.8 | 8.0 | 0.00 | 0.00 | 0.00 | 57 | 1010.8 |
| 20260504020315 | 16 | 240 | 4.8 | 6.4 | 0.00 | 0.00 | 0.00 | 57 | 1010.8 |
| 20260504020135 | 16 | 242 | 4.8 | 6.4 | 0.00 | 0.00 | 0.00 | 57 | 1010.9 |
| 20260504015755 | 16 | 242 | 4.8 | 6.4 | 0.00 | 0.00 | 0.00 | 56 | 1010.9 |
| 20260504015415 | 16 | 245 | 4.8 | 8.0 | 0.00 | 0.00 | 0.00 | 56 | 1010.9 |
| 20260504015115 | 16 | 245 | 6.4 | 9.7 | 0.00 | 0.00 | 0.00 | 56 | 1010.8 |
| 20260504014935 | 16 | 248 | 4.8 | 9.7 | 0.00 | 0.00 | 0.00 | 57 | 1010.8 |
| 20260504014515 | 16 | 248 | 4.8 | 6.4 | 0.00 | 0.00 | 0.00 | 57 | 1010.8 |
| 20260504014215 | 16 | 261 | 4.8 | 11.3 | 0.00 | 0.00 | 0.00 | 57 | 1010.7 |
| 20260504013915 | 16 | 251 | 4.8 | 9.7 | 0.00 | 0.00 | 0.00 | 57 | 1010.7 |
| 20260504013615 | 16 | 263 | 3.2 | 6.4 | 0.00 | 0.00 | 0.00 | 58 | 1010.7 |
| 20260504013315 | 15 | 254 | 3.2 | 6.4 | 0.00 | 0.00 | 0.00 | 58 | 1010.7 |
| 20260504013015 | 15 | 259 | 4.8 | 8.0 | 0.00 | 0.00 | 0.00 | 60 | 1010.7 |
| 20260504012755 | 15 | 257 | 4.8 | 6.4 | 0.00 | 0.00 | 0.00 | 60 | 1010.7 |
| 20260504012418 | 15 | 242 | 4.8 | 8.0 | 0.00 | 0.00 | 0.00 | 62 | 1010.7 |
| 20260504012115 | 15 | 245 | 4.8 | 6.4 | 0.00 | 0.00 | 0.00 | 63 | 1010.7 |
| 20260504011815 | 14 | 243 | 4.8 | 6.4 | 0.00 | 0.00 | 0.00 | 66 | 1010.6 |
| 20260504011515 | 13 | 242 | 4.8 | 6.4 | 0.00 | 0.00 | 0.00 | 70 | 1010.6 |
| 20260504011335 | 13 | 245 | 4.8 | 6.4 | 0.00 | 0.00 | 0.00 | 71 | 1010.6 |
| 20260504010915 | 13 | 250 | 3.2 | 6.4 | 0.00 | 0.00 | 0.00 | 72 | 1010.6 |
| 20260504010615 | 13 | 248 | 3.2 | 4.8 | 0.00 | 0.00 | 0.00 | 72 | 1010.5 |
| 20260504010315 | 13 | 263 | 1.6 | 4.8 | 0.00 | 0.00 | 0.00 | 71 | 1010.5 |
| 20260504010036 | 13 | 266 | 3.2 | 4.8 | 0.00 | 0.00 | 0.00 | 71 | 1010.5 |
| 20260504005538 | 13 | 266 | 1.6 | 3.2 | 0.00 | 0.00 | 0.00 | 68 | 1010.5 |
| 20260504005155 | 13 | 266 | 1.6 | 4.8 | 0.00 | 0.00 | 0.00 | 69 | 1010.5 |
| 20260504004815 | 13 | 266 | 1.6 | 3.2 | 0.00 | 0.00 | 0.00 | 69 | 1010.5 |
| 20260504004638 | 13 | 266 | 0.0 | 1.6 | 0.00 | 0.00 | 0.00 | 68 | 1010.6 |
| 20260504004215 | 13 | 241 | 1.6 | 3.2 | 0.00 | 0.00 | 0.00 | 69 | 1010.5 |
| 20260504003915 | 13 | 223 | 0.0 | 1.6 | 0.00 | 0.00 | 0.00 | 69 | 1010.5 |
| 20260504003658 | 13 | 223 | 0.0 | 3.2 | 0.00 | 0.00 | 0.00 | 69 | 1010.5 |
| 20260504003315 | 14 | 223 | 0.0 | 1.6 | 0.00 | 0.00 | 0.00 | 69 | 1010.5 |
| 20260504003015 | 14 | 223 | 0.0 | 3.2 | 0.00 | 0.00 | 0.00 | 68 | 1010.5 |
| 20260504002715 | 14 | 223 | 1.6 | 3.2 | 0.00 | 0.00 | 0.00 | 66 | 1010.5 |
| 20260504002415 | 14 | 223 | 1.6 | 3.2 | 0.00 | 0.00 | 0.00 | 66 | 1010.4 |
| 20260504002115 | 14 | 223 | 1.6 | 3.2 | 0.00 | 0.00 | 0.00 | 66 | 1010.4 |
| 20260504001815 | 14 | 228 | 1.6 | 4.8 | 0.00 | 0.00 | 0.00 | 67 | 1010.4 |
| 20260504001515 | 14 | 228 | 3.2 | 6.4 | 0.00 | 0.00 | 0.00 | 67 | 1010.4 |
| 20260504001255 | 13 | 228 | 1.6 | 3.2 | 0.00 | 0.00 | 0.00 | 67 | 1010.4 |
| 20260504000915 | 13 | 228 | 1.6 | 3.2 | 0.00 | 0.00 | 0.00 | 68 | 1010.4 |
| 20260504000735 | 13 | 228 | 1.6 | 4.8 | 0.00 | 0.00 | 0.00 | 68 | 1010.4 |
| 20260504000315 | 14 | 228 | 1.6 | 3.2 | 0.00 | 0.00 | 0.00 | 68 | 1010.4 |
| 20260504000018 | 14 | 228 | 0.0 | 1.6 | 0.00 | 0.00 | 0.00 | 68 | 1010.4 |
| 20260503235715 | 14 | 228 | 0.0 | 1.6 | 0.00 | 0.00 | 0.00 | 67 | 1010.3 |
| 20260503235415 | 14 | 228 | 1.6 | 3.2 | 0.00 | 0.00 | 0.00 | 67 | 1010.3 |
| 20260503235118 | 14 | 228 | 1.6 | 3.2 | 0.00 | 0.00 | 0.00 | 66 | 1010.3 |
| 20260503234858 | 14 | 228 | 1.6 | 3.2 | 0.00 | 0.00 | 0.00 | 66 | 1010.3 |
| 20260503234515 | 14 | 0.0 | 0.0 | 0.00 | 0.00 | 0.00 | 66 | 1010.3 | |
| 20260503234215 | 14 | 228 | 0.0 | 1.6 | 0.00 | 0.00 | 0.00 | 65 | 1010.3 |
| 20260503233915 | 14 | 228 | 1.6 | 3.2 | 0.00 | 0.00 | 0.00 | 66 | 1010.3 |
| 20260503233655 | 14 | 228 | 0.0 | 1.6 | 0.00 | 0.00 | 0.00 | 65 | 1010.3 |
| 20260503233438 | 15 | 228 | 0.0 | 1.6 | 0.00 | 0.00 | 0.00 | 63 | 1010.3 |
| 20260503233018 | 15 | 228 | 0.0 | 3.2 | 0.00 | 0.00 | 0.00 | 62 | 1010.3 |
| 20260503232715 | 15 | 228 | 0.0 | 1.6 | 0.00 | 0.00 | 0.00 | 61 | 1010.3 |
| 20260503232415 | 15 | 228 | 1.6 | 3.2 | 0.00 | 0.00 | 0.00 | 58 | 1010.3 |
| 20260503232115 | 15 | 228 | 1.6 | 3.2 | 0.00 | 0.00 | 0.00 | 57 | 1010.3 |
| 20260503231815 | 15 | 228 | 3.2 | 4.8 | 0.00 | 0.00 | 0.00 | 57 | 1010.2 |
| 20260503231558 | 16 | 228 | 3.2 | 4.8 | 0.00 | 0.00 | 0.00 | 56 | 1010.3 |
| 20260503231215 | 16 | 228 | 1.6 | 3.2 | 0.00 | 0.00 | 0.00 | 55 | 1010.3 |
| 20260503230915 | 16 | 228 | 1.6 | 4.8 | 0.00 | 0.00 | 0.00 | 53 | 1010.4 |
| 20260503230615 | 17 | 234 | 1.6 | 3.2 | 0.00 | 0.00 | 0.00 | 52 | 1010.4 |
| 20260503230318 | 17 | 240 | 3.2 | 6.4 | 0.00 | 0.00 | 0.00 | 50 | 1010.4 |
| 20260503230015 | 17 | 236 | 4.8 | 6.4 | 0.00 | 0.00 | 0.00 | 51 | 1010.4 |
| 20260503225755 | 17 | 237 | 4.8 | 8.0 | 0.00 | 0.00 | 0.00 | 51 | 1010.4 |
| 20260503225415 | 17 | 244 | 4.8 | 6.4 | 0.00 | 0.00 | 0.00 | 52 | 1010.4 |
| 20260503225115 | 17 | 241 | 4.8 | 6.4 | 0.00 | 0.00 | 0.00 | 52 | 1010.5 |
| 20260503224855 | 17 | 238 | 4.8 | 8.0 | 0.00 | 0.00 | 0.00 | 52 | 1010.5 |
| 20260503224555 | 17 | 244 | 4.8 | 6.4 | 0.00 | 0.00 | 0.00 | 52 | 1010.4 |
| 20260503224215 | 17 | 240 | 4.8 | 6.4 | 0.00 | 0.00 | 0.00 | 51 | 1010.4 |
| 20260503223955 | 17 | 235 | 4.8 | 6.4 | 0.00 | 0.00 | 0.00 | 51 | 1010.4 |
| 20260503223615 | 16 | 233 | 4.8 | 6.4 | 0.00 | 0.00 | 0.00 | 52 | 1010.3 |
| 20260503223315 | 17 | 236 | 3.2 | 4.8 | 0.00 | 0.00 | 0.00 | 52 | 1010.3 |
| 20260503223018 | 17 | 245 | 3.2 | 8.0 | 0.00 | 0.00 | 0.00 | 51 | 1010.2 |
| 20260503222715 | 17 | 206 | 3.2 | 4.8 | 0.00 | 0.00 | 0.00 | 50 | 1010.2 |
| 20260503222415 | 17 | 197 | 3.2 | 4.8 | 0.00 | 0.00 | 0.00 | 52 | 1010.2 |
| 20260503222115 | 17 | 202 | 1.6 | 4.8 | 0.00 | 0.00 | 0.00 | 52 | 1010.1 |
| 20260503222055 | 17 | 208 | 1.6 | 4.8 | 0.00 | 0.00 | 0.00 | 51 | 1010.1 |
| 20260503221515 | 17 | 219 | 3.2 | 6.4 | 0.00 | 0.00 | 0.00 | 52 | 1010.1 |
| 20260503221255 | 16 | 237 | 4.8 | 9.7 | 0.00 | 0.00 | 0.00 | 52 | 1010.3 |
| 20260503220915 | 16 | 258 | 4.8 | 12.9 | 0.00 | 0.00 | 0.00 | 55 | 1010.4 |
| 20260503220658 | 15 | 278 | 4.8 | 16.1 | 0.00 | 0.00 | 0.00 | 58 | 1010.3 |
| 20260503220315 | 14 | 282 | 11.3 | 16.1 | 0.00 | 0.00 | 0.00 | 62 | 1010.4 |
| 20260503220015 | 14 | 223 | 3.2 | 6.4 | 0.00 | 0.00 | 0.00 | 64 | 1010.1 |
| 20260503215715 | 14 | 190 | 1.6 | 3.2 | 0.00 | 0.00 | 0.00 | 64 | 1010.0 |
| 20260503215415 | 15 | 190 | 1.6 | 4.8 | 0.00 | 0.00 | 0.00 | 64 | 1009.9 |
| 20260503215235 | 15 | 190 | 1.6 | 3.2 | 0.00 | 0.00 | 0.00 | 63 | 1009.9 |
| 20260503214815 | 15 | 190 | 1.6 | 3.2 | 0.00 | 0.00 | 0.00 | 62 | 1009.9 |
| 20260503214555 | 15 | 190 | 1.6 | 3.2 | 0.00 | 0.00 | 0.00 | 61 | 1009.9 |
| 20260503214215 | 15 | 190 | 1.6 | 3.2 | 0.00 | 0.00 | 0.00 | 62 | 1010.0 |
| 20260503213915 | 15 | 190 | 0.0 | 1.6 | 0.00 | 0.00 | 0.00 | 61 | 1009.9 |
| 20260503213655 | 15 | 190 | 0.0 | 3.2 | 0.00 | 0.00 | 0.00 | 61 | 1009.9 |
| 20260503213355 | 15 | 188 | 1.6 | 3.2 | 0.00 | 0.00 | 0.00 | 61 | 1009.9 |
| 20260503213055 | 15 | 163 | 1.6 | 3.2 | 0.00 | 0.00 | 0.00 | 60 | 1009.9 |
| 20260503212715 | 15 | 0.0 | 0.0 | 0.00 | 0.00 | 0.00 | 60 | 1009.9 | |
| 20260503212535 | 15 | 0.0 | 0.0 | 0.00 | 0.00 | 0.00 | 60 | 1009.8 | |
| 20260503212116 | 16 | 0.0 | 0.0 | 0.00 | 0.00 | 0.00 | 60 | 1009.8 | |
| 20260503211815 | 16 | 163 | 0.0 | 3.2 | 0.00 | 0.00 | 0.00 | 59 | 1009.8 |
| 20260503211515 | 16 | 163 | 0.0 | 1.6 | 0.00 | 0.00 | 0.00 | 58 | 1009.8 |
| 20260503211255 | 16 | 0.0 | 0.0 | 0.00 | 0.00 | 0.00 | 58 | 1009.8 | |
| 20260503210915 | 16 | 163 | 0.0 | 1.6 | 0.00 | 0.00 | 0.00 | 58 | 1009.8 |
| 20260503210615 | 16 | 163 | 0.0 | 1.6 | 0.00 | 0.00 | 0.00 | 57 | 1009.8 |
| 20260503210318 | 17 | 163 | 1.6 | 3.2 | 0.00 | 0.00 | 0.00 | 56 | 1009.8 |
| 20260503210015 | 17 | 163 | 1.6 | 3.2 | 0.00 | 0.00 | 0.00 | 55 | 1009.7 |
| 20260503205715 | 17 | 163 | 3.2 | 4.8 | 0.00 | 0.00 | 0.00 | 54 | 1009.8 |
| 20260503205415 | 17 | 163 | 3.2 | 4.8 | 0.00 | 0.00 | 0.00 | 53 | 1009.8 |
| 20260503205118 | 18 | 163 | 1.6 | 3.2 | 0.00 | 0.00 | 0.00 | 51 | 1009.8 |
| 20260503204815 | 18 | 155 | 3.2 | 4.8 | 0.00 | 0.00 | 0.00 | 47 | 1009.7 |
| 20260503204515 | 19 | 153 | 3.2 | 6.4 | 0.00 | 0.00 | 0.00 | 45 | 1009.8 |
| 20260503204258 | 19 | 154 | 4.8 | 6.4 | 0.00 | 0.00 | 0.00 | 43 | 1009.8 |
| 20260503204039 | 19 | 153 | 4.8 | 6.4 | 0.00 | 0.00 | 0.00 | 43 | 1009.8 |
| 20260503203615 | 19 | 161 | 4.8 | 6.4 | 0.00 | 0.00 | 0.00 | 44 | 1009.8 |
| 20260503203315 | 19 | 171 | 3.2 | 4.8 | 0.00 | 0.00 | 0.00 | 45 | 1009.8 |
| 20260503203018 | 19 | 175 | 3.2 | 4.8 | 0.00 | 0.00 | 0.00 | 45 | 1009.9 |
| 20260503202715 | 19 | 177 | 3.2 | 6.4 | 0.00 | 0.00 | 0.00 | 44 | 1009.9 |
| 20260503202455 | 19 | 170 | 3.2 | 6.4 | 0.00 | 0.00 | 0.00 | 44 | 1009.9 |
| 20260503202115 | 19 | 167 | 3.2 | 6.4 | 0.00 | 0.00 | 0.00 | 45 | 1009.9 |
| 20260503201815 | 18 | 185 | 3.2 | 6.4 | 0.00 | 0.00 | 0.00 | 46 | 1009.9 |
| 20260503201518 | 18 | 176 | 4.8 | 8.0 | 0.00 | 0.00 | 0.00 | 48 | 1009.9 |
| 20260503201215 | 18 | 175 | 3.2 | 4.8 | 0.00 | 0.00 | 0.00 | 52 | 1010.0 |
| 20260503200915 | 18 | 175 | 3.2 | 6.4 | 0.00 | 0.00 | 0.00 | 52 | 1009.9 |
| 20260503200615 | 18 | 175 | 3.2 | 4.8 | 0.00 | 0.00 | 0.00 | 52 | 1010.0 |
| 20260503200315 | 18 | 175 | 3.2 | 4.8 | 0.00 | 0.00 | 0.00 | 54 | 1010.1 |
| 20260503200015 | 18 | 166 | 3.2 | 6.4 | 0.00 | 0.00 | 0.00 | 51 | 1010.1 |
| 20260503195715 | 17 | 164 | 4.8 | 6.4 | 0.00 | 0.00 | 0.00 | 55 | 1010.1 |
| 20260503195455 | 17 | 167 | 3.2 | 4.8 | 0.00 | 0.00 | 0.00 | 57 | 1010.1 |
| 20260503195115 | 18 | 167 | 3.2 | 4.8 | 0.00 | 0.00 | 0.00 | 56 | 1010.1 |
| 20260503194818 | 18 | 167 | 3.2 | 4.8 | 0.00 | 0.00 | 0.00 | 57 | 1010.1 |
| 20260503194515 | 18 | 167 | 3.2 | 4.8 | 0.00 | 0.00 | 0.00 | 58 | 1010.1 |
| 20260503194215 | 17 | 170 | 3.2 | 4.8 | 0.00 | 0.00 | 0.00 | 59 | 1010.1 |
| 20260503193915 | 17 | 171 | 3.2 | 4.8 | 0.00 | 0.00 | 0.00 | 61 | 1010.0 |
| 20260503193655 | 17 | 171 | 3.2 | 4.8 | 0.00 | 0.00 | 0.00 | 60 | 1010.1 |
| 20260503193315 | 17 | 174 | 3.2 | 4.8 | 0.00 | 0.00 | 0.00 | 60 | 1010.0 |
| 20260503193135 | 17 | 175 | 3.2 | 4.8 | 0.00 | 0.00 | 0.00 | 59 | 1010.0 |
| 20260503192715 | 17 | 175 | 1.6 | 4.8 | 0.00 | 0.00 | 0.00 | 60 | 1010.0 |
| 20260503192415 | 17 | 175 | 3.2 | 4.8 | 0.00 | 0.00 | 0.00 | 60 | 1010.0 |